Dansville, NY

2:13 PM EST on February 26, 2017 (GMT -0500)
Dansville Municipal

Weather History for KDSV - February, 2013

Change the Weather History Date:

Thursday, February 14, 2013

  Actual Average Record
Temperature  
Mean Temperature 34 °F -  
Max Temperature 45 °F 33 °F 63 °F (1990)
Min Temperature 24 °F 14 °F -10 °F (1979)
Degree Days  
Heating Degree Days 30    
Moisture  
Dew Point 27 °F    
Average Humidity 76    
Maximum Humidity 89    
Minimum Humidity 45    
Precipitation  
Precipitation 0.02 in - - ()
Sea Level Pressure  
Sea Level Pressure 29.88 in    
Wind  
Wind Speed 3 mph (SSE)    
Max Wind Speed 13 mph    
Max Gust Speed -    
Visibility 9 miles    
Events Rain    
Averages and records for this station are not official NWS values.
T = Trace of Precipitation, MM = Missing Value Source: NWS Daily Summary

Daily Weather History Graph

Daily Weather History Graph

Search for Another Location

Airport or City:

Trip Planner

Search our weather history database for the weather conditions in past years. The results will help you decide how hot, cold, wet, or windy it might be!

Date:

Astronomy

Feb. 14, 2013 Rise Set
Actual Time 7:08 AM EST 5:41 PM EST
Civil Twilight 6:39 AM EST 6:10 PM EST
Nautical Twilight 6:06 AM EST 6:43 PM EST
Astronomical Twilight 5:34 AM EST 7:16 PM EST
Moon 9:02 AM EST (2/14) 10:50 PM EST (2/14)
Length of Visible Light 11h 31m
Length of Day
10h 33m
Waxing Crescent, 21% of the Moon is Illuminated
Feb 14
Waxing Crescent
Feb 17
First Quarter
Feb 25
Full
Mar 4
Last Quarter
Mar 11
New

Hourly Weather History & Observations

Time (EST) Temp. Windchill Dew Point Humidity Pressure Visibility Wind Dir Wind Speed Gust Speed Precip Events Conditions
12:54 AM 25.0 °F - 21.9 °F 88% 29.85 in 8.0 mi Calm Calm - N/A   Scattered Clouds
1:01 AM 24.8 °F - 21.2 °F 86% 29.80 in 8.0 mi Calm Calm - N/A   Mostly Cloudy
1:54 AM 27.0 °F - 24.1 °F 89% 29.88 in 8.0 mi Calm Calm - N/A   Overcast
2:54 AM 28.0 °F - 24.1 °F 85% 29.88 in 8.0 mi Calm Calm - N/A   Overcast
3:46 AM 26.6 °F 22.6 °F 21.2 °F 80% 29.84 in 8.0 mi SSE 3.5 mph - N/A   Scattered Clouds
3:54 AM 27.0 °F 23.0 °F 23.0 °F 85% 29.89 in 8.0 mi SSE 3.5 mph - N/A   Partly Cloudy
4:12 AM 28.4 °F - 23.0 °F 80% 29.84 in 9.0 mi Calm Calm - N/A   Mostly Cloudy
4:54 AM 28.0 °F - 24.1 °F 85% 29.91 in 9.0 mi Calm Calm - N/A   Overcast
5:54 AM 30.0 °F - 21.9 °F 72% 29.92 in 10.0 mi Calm Calm - N/A   Overcast
6:54 AM 30.0 °F - 21.9 °F 72% 29.94 in 10.0 mi Calm Calm - N/A   Overcast
7:54 AM 30.0 °F - 21.9 °F 72% 29.96 in 10.0 mi Calm Calm - N/A   Overcast
8:54 AM 30.0 °F 22.4 °F 21.0 °F 69% 29.97 in 10.0 mi South 8.1 mph - N/A   Overcast
9:21 AM 30.2 °F 23.4 °F 21.2 °F 69% 29.92 in 10.0 mi South 6.9 mph - N/A   Overcast
9:54 AM 33.1 °F 28.7 °F 23.0 °F 66% 29.96 in 10.0 mi SSE 4.6 mph - N/A   Overcast
10:54 AM 37.0 °F 30.4 °F 23.0 °F 57% 29.93 in 10.0 mi SE 9.2 mph - N/A   Clear
11:54 AM 41.0 °F 36.4 °F 23.0 °F 49% 29.91 in 10.0 mi SE 6.9 mph - N/A   Clear
12:54 PM 44.1 °F 41.5 °F 24.1 °F 45% 29.88 in 10.0 mi SW 4.6 mph - N/A   Clear
1:54 PM 45.0 °F 39.7 °F 26.1 °F 48% 29.86 in 10.0 mi South 10.4 mph - N/A   Mostly Cloudy
2:54 PM 43.0 °F 36.4 °F 30.0 °F 60% 29.86 in 10.0 mi South 12.7 mph - N/A   Overcast
3:54 PM 41.0 °F 35.2 °F 30.9 °F 67% 29.87 in 9.0 mi South 9.2 mph - 0.00 in Rain Light Rain
4:54 PM 39.9 °F 33.9 °F 33.1 °F 77% 29.87 in 9.0 mi SSE 9.2 mph - 0.00 in   Overcast
5:54 PM 37.9 °F 31.5 °F 33.1 °F 83% 29.87 in 9.0 mi SSE 9.2 mph - 0.00 in Rain Light Rain
6:54 PM 37.9 °F 31.5 °F 33.1 °F 83% 29.88 in 8.0 mi SSE 9.2 mph - 0.00 in Rain Light Rain
7:54 PM 37.0 °F 30.4 °F 33.1 °F 86% 29.88 in 8.0 mi SE 9.2 mph - 0.00 in Rain Light Rain
8:54 PM 37.9 °F 32.1 °F 34.0 °F 86% 29.87 in 9.0 mi SE 8.1 mph - 0.00 in Rain Light Rain
9:02 PM 37.4 °F 31.4 °F 33.8 °F 87% 29.82 in 8.0 mi SSE 8.1 mph - 0.00 in Rain Light Rain
9:54 PM 37.9 °F 32.7 °F 34.0 °F 86% 29.86 in 9.0 mi SSE 6.9 mph - 0.02 in Rain Light Rain
10:04 PM 37.4 °F 31.4 °F 33.8 °F 87% 29.81 in 10.0 mi SE 8.1 mph - 0.00 in   Overcast
10:54 PM 37.0 °F 31.6 °F 33.1 °F 86% 29.84 in 10.0 mi SE 6.9 mph - 0.00 in   Mostly Cloudy
11:54 PM 37.9 °F - 35.1 °F 89% 29.84 in 8.0 mi Calm Calm - 0.00 in Rain Light Rain